Dewpoint
70 70 70 69 70 68 67 72 72 72 72 72 72 71 70 70 69 69 67 66 68 70 71 71 71 68 70 70 70 70 70 69 70 70 70 70 70 69 69 68 68 69 68 68 67 68 68 68 68 69 68 69 68 67 66 65 63 62 59 64 64 64
70 70 70 68 69 68 68 70 72 72 72 73 72 71 69 68 70 68 66 66 68 70 71 71 71 68 70 70 71 70 70 70 70 70 71 71 70 70 69 69 68 69 68 68 67 66 67 67 67 68 67 68 67 65 66 66 63 63 63 63 65 67
68 70 69 67 69 68 69 71 71 70 71 71 72 70 69 68 67 68 66 65 68 70 70 70 70 69 69 70 69 70 70 70 70 70 70 70 70 70 70 69 69 69 68 68 66 64 64 65 65 67 67 66 66 65 65 66 63 61 62 63 64 67
67 69 70 68 68 71 71 71 70 69 69 70 71 70 67 66 67 69 67 68 69 69 69 69 69 70 71 69 69 70 71 70 70 71 70 70 69 69 70 69 69 68 68 65 61 61 61 62 61 64 65 66 65 65 65 67 64 60 63 64 65 68
66 67 71 72 71 71 72 71 72 71 69 71 71 70 69 69 71 68 69 69 69 67 67 67 70 70 68 69 68 69 70 70 69 68 70 68 67 67 68 67 67 67 63 61 58 58 59 60 62 61 62 64 65 65 65 65 66 62 62 63 66 67
66 68 69 70 71 72 72 71 72 73 72 71 70 69 70 68 68 67 67 68 68 67 67 69 69 69 69 70 70 68 68 70 68 66 68 68 68 68 67 63 65 62 61 60 59 60 60 63 61 61 62 64 64 65 65 64 65 63 64 64 67 67
62 66 66 66 68 71 71 72 70 71 69 70 72 70 68 67 67 67 66 67 68 67 69 70 69 70 67 67 66 68 69 69 69 70 67 66 67 66 65 64 65 62 62 61 61 62 61 61 63 59 60 60 63 63 65 64 64 63 64 64 67 68
61 61 65 65 69 69 70 69 69 70 70 73 70 68 67 67 67 66 68 67 71 69 68 69 69 68 66 66 67 67 69 68 65 68 67 66 67 65 64 65 66 61 62 63 61 62 61 59 62 64 61 62 61 63 66 65 66 64 65 64 66 68
62 60 65 64 66 69 71 69 68 69 71 72 68 69 69 68 69 68 67 68 70 70 69 67 68 68 68 67 66 66 66 66 65 67 67 67 65 64 65 65 66 64 64 64 65 65 61 60 63 64 61 59 61 61 63 64 66 64 63 64 64 67
60 58 61 64 66 68 69 70 69 69 69 69 70 72 71 70 73 73 70 68 69 71 69 68 67 67 66 65 66 66 65 65 65 67 66 66 67 66 69 68 67 65 59 61 62 65 64 63 59 62 61 59 59 59 65 65 64 65 67 65 65 66
55 63 55 53 62 66 66 66 67 66 68 66 68 67 70 70 69 71 72 72 69 70 69 70 68 67 67 67 67 67 66 67 67 68 67 66 66 66 69 68 66 65 63 60 60 61 62 63 62 58 59 56 59 61 61 63 63 62 64 66 65 65
58 65 66 54 59 57 60 60 64 65 64 65 67 66 66 68 70 72 70 70 71 70 69 70 69 67 66 67 67 69 69 69 69 69 68 65 65 67 66 64 64 64 65 62 62 63 65 64 64 60 60 58 57 59 58 62 62 61 61 65 64 64
54 66 65 62 59 60 60 53 59 60 63 66 65 65 66 69 69 70 70 70 69 69 69 70 68 67 67 68 67 68 67 68 67 70 70 67 66 67 65 64 64 62 61 63 62 63 62 63 63 62 63 60 61 58 58 56 59 61 61 60 63 65
60 55 67 60 63 61 60 61 60 63 65 68 69 67 67 70 70 70 70 68 68 67 67 70 69 69 68 67 67 67 69 69 69 67 67 68 67 67 65 64 62 62 63 64 63 64 62 61 62 62 63 61 63 63 62 61 60 60 62 62 61 63
63 62 62 60 59 60 65 57 57 60 62 66 67 68 69 68 68 68 68 68 67 67 67 68 69 70 69 66 66 67 67 69 68 68 67 67 65 64 66 66 64 63 63 64 66 66 66 66 66 63 64 64 64 63 64 63 62 61 59 61 63 61
66 63 65 63 63 64 64 66 61 60 65 66 66 62 69 67 67 68 68 68 66 66 66 67 67 68 67 65 67 67 68 68 67 68 68 66 65 64 66 64 64 64 63 64 63 66 66 66 67 66 65 65 66 64 64 64 63 61 60 60 58 62
65 64 64 64 62 65 66 60 61 62 54 63 65 64 64 65 66 67 68 68 66 67 68 68 67 67 66 65 66 66 68 68 68 67 67 67 64 64 64 63 63 64 64 63 64 63 62 63 65 64 66 67 66 65 62 63 62 63 62 61 61 58
65 64 65 65 63 62 63 59 64 61 61 59 60 65 63 60 64 68 66 66 67 68 69 67 67 67 68 65 66 66 68 67 66 67 66 65 65 64 63 63 62 63 63 63 64 64 63 63 62 63 64 65 67 67 66 65 65 64 62 61 61 60
64 64 64 62 65 63 62 66 55 61 56 59 63 57 63 61 62 64 66 66 66 67 66 66 66 67 67 65 66 67 67 67 66 66 66 64 64 63 63 63 62 63 64 65 65 65 63 63 62 62 61 63 64 66 66 66 65 64 63 62 61 60
64 64 63 64 62 59 61 62 56 60 57 57 55 57 60 58 64 64 64 63 62 65 64 64 65 67 65 65 65 65 66 66 66 66 65 64 64 64 64 63 63 63 64 64 65 65 64 64 63 63 63 63 64 64 63 65 65 65 63 62 61 62
63 62 60 59 59 57 59 60 63 60 55 59 54 57 59 59 59 59 57 55 58 60 60 62 63 63 65 63 64 66 65 65 65 65 66 64 64 64 65 64 64 64 64 64 64 64 64 64 62 62 63 63 64 63 62 63 64 64 64 63 62 61
61 61 62 61 64 67 62 56 59 56 54 53 47 54 56 58 57 58 60 59 60 60 61 61 61 63 64 64 62 64 64 65 66 66 65 65 64 64 63 63 64 64 65 64 62 62 62 63 62 61 60 60 61 63 63 62 62 62 63 63 62 61
60 60 61 63 60 62 63 61 64 62 62 51 51 54 49 53 54 50 62 59 61 61 60 55 58 58 62 59 61 63 63 64 64 65 65 64 64 63 63 63 63 62 63 63 63 63 62 63 60 62 60 59 57 57 60 61 62 62 62 63 64 61
61 59 60 60 63 60 62 63 60 59 57 56 52 54 56 57 56 55 55 57 57 60 56 55 53 53 55 59 60 58 62 60 62 64 64 63 63 62 62 63 62 61 63 62 62 63 65 64 62 61 57 56 56 56 54 57 58 60 62 62 62 62
61 59 58 58 62 59 59 61 60 56 54 53 55 55 56 57 56 56 56 58 58 58 56 56 58 56 54 57 59 59 58 60 63 61 61 60 60 60 61 62 63 63 63 62 59 61 64 63 63 63 60 57 55 54 55 57 58 59 62 62 61 62
62 58 56 60 60 59 60 59 59 57 54 55 54 57 56 53 56 57 53 59 54 54 56 57 54 55 54 57 58 60 60 57 59 59 60 60 58 57 58 59 61 62 63 61 62 59 60 61 63 62 62 63 61 57 56 59 58 54 60 61 61 59
61 57 57 59 59 59 60 58 58 55 53 53 54 58 59 59 54 56 58 58 59 60 55 58 58 56 56 56 58 58 55 51 51 55 55 56 56 59 56 53 60 59 61 63 62 59 59 59 62 62 62 63 63 63 62 59 55 57 55 59 60 61
60 56 57 59 58 58 59 58 58 56 54 56 56 54 58 57 58 57 57 56 56 58 56 57 60 56 58 56 57 56 56 60 59 54 55 55 57 57 57 56 58 59 59 60 61 60 59 59 59 58 61 61 61 61 61 61 60 57 56 55 57 61
60 57 58 59 57 57 58 57 58 56 56 56 53 55 53 53 55 57 57 57 57 55 58 58 54 54 53 54 55 54 53 51 50 50 48 49 53 53 56 58 58 57 57 56 57 58 59 59 58 58 59 60 60 60 60 60 60 59 57 55 54 55
59 57 58 58 57 56 58 56 58 57 58 53 53 53 52 55 56 57 58 57 57 56 56 58 57 53 52 50 53 52 51 53 51 47 45 46 51 54 55 55 57 57 56 55 56 55 53 53 52 52 52 57 58 58 58 57 59 57 57 56 53 51
58 57 58 58 56 57 58 55 57 58 56 53 55 55 54 54 54 57 54 55 56 55 56 55 56 56 54 53 54 56 54 52 52 53 51 50 52 48 53 54 53 53 52 54 53 53 52 52 52 49 47 49 48 49 50 50 49 50 48 50 49 49
57 57 58 57 57 57 58 55 59 58 56 55 54 54 53 54 54 54 54 56 56 56 54 56 55 56 57 56 57 55 56 55 56 56 55 55 53 51 52 53 55 54 53 54 53 51 51 50 49 50 50 49 49 49 47 45 45 47 48 47 48 46
55 57 57 56 57 57 58 56 58 57 57 55 55 55 53 55 54 55 54 54 53 53 53 54 55 54 55 56 56 56 55 56 54 54 52 48 50 52 52 51 50 50 51 50 52 52 51 50 49 49 50 47 45 45 46 49 50 49 49 50 49 46
57 56 56 57 57 56 58 57 59 57 58 54 54 56 53 54 55 54 55 55 53 53 53 54 54 55 55 55 57 57 56 54 55 55 55 56 55 53 53 46 51 52 52 53 53 52 52 52 51 49 49 48 46 45 47 49 46 49 49 48 47 46
55 55 56 56 57 56 57 58 59 57 58 54 55 55 54 55 54 55 53 55 55 54 54 53 54 54 54 56 57 56 54 54 54 54 54 54 54 54 54 48 51 54 52 52 51 52 52 51 50 48 49 49 51 46 48 42 47 46 43 47 46 47
54 55 55 54 55 56 57 58 59 58 58 56 54 54 55 54 55 57 54 54 56 55 55 55 55 53 54 56 55 55 54 55 54 54 55 53 53 52 53 50 52 53 51 51 53 52 51 52 51 50 49 52 48 46 47 45 47 47 47 48 49 49
55 55 54 54 55 57 58 58 59 59 57 57 55 54 55 55 55 58 57 54 56 56 58 56 56 54 54 56 55 54 53 54 55 55 54 55 53 53 53 52 52 53 52 53 53 52 52 51 51 51 50 48 52 49 46 53 50 49 48 50 50 48